Faribault, MN

6:55 PM CST on December 16, 2017 (GMT -0600)
Faribault Municipal

Weather History for KFBL - June, 2013

Change the Weather History Date:

Tuesday, June 18, 2013

  Actual Average Record
Temperature  
Mean Temperature 66 °F -  
Max Temperature 75 °F 78 °F 98 °F (1953)
Min Temperature 57 °F 55 °F 35 °F (2003)
Cooling Degree Days 1    
Growing Degree Days 16 (Base 50)    
Moisture  
Dew Point 57 °F    
Average Humidity 76    
Maximum Humidity 94    
Minimum Humidity 53    
Precipitation  
Precipitation 0.00 in - - ()
Sea Level Pressure  
Sea Level Pressure 30.06 in    
Wind  
Wind Speed 5 mph (NE)    
Max Wind Speed 9 mph    
Max Gust Speed 17 mph    
Visibility 10 miles    
Events Thunderstorm    
Averages and records for this station are not official NWS values.
T = Trace of Precipitation, MM = Missing Value Source: NWS Daily Summary

Daily Weather History Graph

Daily Weather History Graph

Search for Another Location

Airport or City:

Trip Planner

Search our weather history database for the weather conditions in past years. The results will help you decide how hot, cold, wet, or windy it might be!

Date:

Astronomy

Jun. 18, 2013 Rise Set
Actual Time 5:28 AM CDT 9:00 PM CDT
Civil Twilight 4:52 AM CDT 9:36 PM CDT
Nautical Twilight 4:03 AM CDT 10:25 PM CDT
Astronomical Twilight 3:01 AM CDT 11:27 PM CDT
Moon 3:36 PM CDT (6/18) 1:47 AM CDT (6/18)
Length of Visible Light 16h 44m
Length of Day
15h 31m
Waxing Gibbous, 71% of the Moon is Illuminated
Jun 18
Waxing Gibbous
Jun 23
Full
Jun 29
Last Quarter
Jul 8
New
Jul 15
First Quarter

Hourly Weather History & Observations

Time (CDT) Temp. Dew Point Humidity Pressure Visibility Wind Dir Wind Speed Gust Speed Precip Events Conditions
12:14 AM 64.4 °F 57.2 °F 77% 30.01 in 10.0 mi NNE 5.8 mph - N/A   Mostly Cloudy
12:34 AM 64.4 °F 57.2 °F 77% 30.01 in 10.0 mi NNE 5.8 mph - N/A   Mostly Cloudy
12:54 AM 64.4 °F 57.2 °F 77% 30.01 in 10.0 mi NNE 5.8 mph - N/A   Scattered Clouds
1:13 AM 62.6 °F 57.2 °F 82% 30.01 in 10.0 mi NNE 8.1 mph - N/A   Scattered Clouds
1:34 AM 62.6 °F 57.2 °F 82% 30.01 in 10.0 mi NNE 5.8 mph - N/A   Clear
1:54 AM 62.6 °F 57.2 °F 82% 30.01 in 10.0 mi North 5.8 mph - N/A   Clear
2:14 AM 60.8 °F 57.2 °F 88% 30.01 in 10.0 mi NNE 5.8 mph - N/A   Clear
2:34 AM 60.8 °F 57.2 °F 88% 30.01 in 10.0 mi NNE 5.8 mph - N/A   Clear
2:54 AM 60.8 °F 55.4 °F 82% 30.01 in 10.0 mi NNE 5.8 mph - N/A   Clear
3:14 AM 60.8 °F 55.4 °F 82% 30.02 in 10.0 mi NNE 4.6 mph - N/A   Scattered Clouds
3:34 AM 59.0 °F 55.4 °F 88% 30.02 in 10.0 mi North 4.6 mph - N/A   Scattered Clouds
3:54 AM 57.2 °F 55.4 °F 94% 30.02 in 10.0 mi NNE 4.6 mph - N/A   Clear
4:14 AM 57.2 °F 55.4 °F 94% 30.03 in 10.0 mi North 4.6 mph - N/A   Clear
4:34 AM 57.2 °F 55.4 °F 94% 30.03 in 10.0 mi North 6.9 mph - N/A   Clear
4:54 AM 57.2 °F 55.4 °F 94% 30.04 in 10.0 mi North 6.9 mph - N/A Thunderstorm Clear
5:14 AM 57.2 °F 53.6 °F 88% 30.05 in 10.0 mi North 6.9 mph - N/A   Clear
5:34 AM 57.2 °F 53.6 °F 88% 30.08 in 10.0 mi West 9.2 mph - N/A   Scattered Clouds
5:54 AM 57.2 °F 55.4 °F 94% 30.08 in 10.0 mi West 8.1 mph - N/A   Overcast
6:14 AM 57.2 °F 53.6 °F 88% 30.09 in 10.0 mi NNW 4.6 mph - N/A   Overcast
6:34 AM 57.2 °F 53.6 °F 88% 30.08 in 10.0 mi Calm Calm - N/A Thunderstorm Overcast
6:54 AM 57.2 °F 55.4 °F 94% 30.07 in 10.0 mi NNE 8.1 mph - N/A Thunderstorm Overcast
7:13 AM 57.2 °F 53.6 °F 88% 30.07 in 10.0 mi NNE 8.1 mph - N/A   Overcast
7:34 AM 57.2 °F 53.6 °F 88% 30.06 in 10.0 mi NNE 8.1 mph - N/A   Scattered Clouds
7:54 AM 57.2 °F 53.6 °F 88% 30.06 in 10.0 mi NNE 6.9 mph - N/A   Scattered Clouds
8:14 AM 57.2 °F 55.4 °F 94% 30.07 in 10.0 mi NE 5.8 mph - N/A   Mostly Cloudy
8:34 AM 57.2 °F 55.4 °F 94% 30.08 in 10.0 mi NNE 3.5 mph - N/A   Overcast
8:54 AM 59.0 °F 55.4 °F 88% 30.08 in 10.0 mi NE 4.6 mph - N/A   Overcast
9:14 AM 60.8 °F 55.4 °F 82% 30.08 in 10.0 mi NNE 5.8 mph - N/A   Overcast
9:34 AM 62.6 °F 57.2 °F 82% 30.08 in 10.0 mi ENE 6.9 mph - N/A   Overcast
9:54 AM 64.4 °F 57.2 °F 77% 30.08 in 10.0 mi NE 6.9 mph - N/A   Mostly Cloudy
10:14 AM 66.2 °F 59.0 °F 78% 30.08 in 10.0 mi ESE 8.1 mph - N/A   Mostly Cloudy
10:34 AM 66.2 °F 59.0 °F 78% 30.08 in 10.0 mi East 4.6 mph - N/A   Overcast
10:53 AM 66.2 °F 60.8 °F 83% 30.08 in 10.0 mi East 4.6 mph - N/A   Overcast
11:14 AM 66.2 °F 60.8 °F 83% 30.09 in 10.0 mi NE 3.5 mph - N/A   Overcast
11:34 AM 66.2 °F 60.8 °F 83% 30.09 in 10.0 mi Calm Calm - N/A   Overcast
11:54 AM 66.2 °F 60.8 °F 83% 30.09 in 10.0 mi Calm Calm - N/A   Overcast
12:14 PM 66.2 °F 60.8 °F 83% 30.10 in 10.0 mi Calm Calm - N/A   Overcast
12:33 PM 68.0 °F 60.8 °F 78% 30.08 in 10.0 mi Calm Calm - N/A   Overcast
12:54 PM 69.8 °F 60.8 °F 73% 30.08 in 10.0 mi East 4.6 mph - N/A   Mostly Cloudy
1:13 PM 71.6 °F 60.8 °F 69% 30.08 in 10.0 mi NE 5.8 mph - N/A   Scattered Clouds
1:34 PM 73.4 °F 60.8 °F 65% 30.08 in 10.0 mi North 6.9 mph - N/A   Scattered Clouds
1:54 PM 73.4 °F 60.8 °F 65% 30.07 in 10.0 mi ENE 6.9 mph - N/A   Scattered Clouds
2:14 PM 73.4 °F 60.8 °F 65% 30.07 in 10.0 mi NE 8.1 mph - N/A   Scattered Clouds
2:34 PM 75.2 °F 60.8 °F 61% 30.07 in 10.0 mi ENE 4.6 mph - N/A   Scattered Clouds
2:49 PM 73.4 °F 60.8 °F 65% 30.06 in 10.0 mi NE 4.6 mph - N/A   Scattered Clouds
3:14 PM 75.2 °F 60.8 °F 61% 30.41 in 10.0 mi NE 9.2 mph - N/A   Scattered Clouds
3:34 PM 75.2 °F 59.0 °F 57% 30.06 in 10.0 mi NNE 9.2 mph - N/A   Scattered Clouds
3:54 PM 73.4 °F 59.0 °F 61% 30.05 in 10.0 mi NE 5.8 mph - N/A   Scattered Clouds
4:13 PM 75.2 °F 57.2 °F 53% 30.05 in 10.0 mi Calm Calm - N/A   Scattered Clouds
4:34 PM 75.2 °F 59.0 °F 57% 30.04 in 10.0 mi NE 9.2 mph 17.3 mph N/A   Scattered Clouds
4:54 PM 75.2 °F 57.2 °F 53% 30.04 in 10.0 mi ENE 9.2 mph - N/A   Scattered Clouds
5:14 PM 75.2 °F 59.0 °F 57% 30.04 in 10.0 mi Calm Calm - N/A   Scattered Clouds
5:34 PM 75.2 °F 59.0 °F 57% 30.03 in 10.0 mi ENE 9.2 mph - N/A   Unknown
5:54 PM 75.2 °F 59.0 °F 57% 30.04 in 7.0 mi NE 6.9 mph - N/A   Clear
6:14 PM 75.2 °F 57.2 °F 53% 30.04 in 10.0 mi ENE 5.8 mph - N/A   Scattered Clouds
6:33 PM 73.4 °F 57.2 °F 57% 30.03 in 10.0 mi East 5.8 mph - N/A   Scattered Clouds
6:54 PM 75.2 °F 57.2 °F 53% 30.03 in 10.0 mi ENE 3.5 mph - N/A   Clear
7:14 PM 73.4 °F 57.2 °F 57% 30.03 in 10.0 mi East 5.8 mph - N/A   Clear
7:34 PM 73.4 °F 57.2 °F 57% 30.03 in 10.0 mi East 5.8 mph - N/A   Clear
7:54 PM 73.4 °F 57.2 °F 57% 30.03 in 10.0 mi East 3.5 mph - N/A   Clear
8:14 PM 71.6 °F 57.2 °F 60% 30.03 in 10.0 mi ENE 3.5 mph - N/A   Clear
8:34 PM 71.6 °F 57.2 °F 60% 30.03 in 10.0 mi East 3.5 mph - N/A   Clear
8:53 PM 69.8 °F 57.2 °F 64% 30.03 in 10.0 mi Calm Calm - N/A   Clear
9:14 PM 68.0 °F 57.2 °F 68% 30.03 in 10.0 mi ENE 3.5 mph - N/A   Clear
9:34 PM 64.4 °F 57.2 °F 77% 30.04 in 10.0 mi Calm Calm - N/A   Clear
9:54 PM 64.4 °F 57.2 °F 77% 30.04 in 10.0 mi Calm Calm - N/A   Clear
10:14 PM 62.6 °F 57.2 °F 82% 30.05 in 10.0 mi Calm Calm - N/A   Clear
10:34 PM 60.8 °F 57.2 °F 88% 30.05 in 10.0 mi Calm Calm - N/A   Scattered Clouds
10:54 PM 62.6 °F 57.2 °F 82% 30.06 in 10.0 mi Calm Calm - N/A   Mostly Cloudy
11:14 PM 62.6 °F 59.0 °F 88% 30.06 in 10.0 mi Calm Calm - N/A   Mostly Cloudy
11:34 PM 62.6 °F 59.0 °F 88% 30.06 in 10.0 mi Calm Calm - N/A   Scattered Clouds
11:54 PM 60.8 °F 57.2 °F 88% 30.06 in 10.0 mi Calm Calm - N/A   Clear